Time,TemperatureF,DewpointF,PressureIn,WindDirection,WindDirectionDegrees,WindSpeedMPH,WindSpeedGustMPH,Humidity,HourlyPrecipIn,Conditions,Clouds,dailyrainin,SoftwareType,DateUTC
2013-03-09 00:00:00,36.1,24.0,30.15,NE,42,6.0,17.0,61,0.00,,SCT200,0.00,VWS V14.00,2013-03-09 05:00:00,
2013-03-09 00:05:00,35.9,24.2,30.15,ESE,107,1.0,17.0,62,0.00,,SCT200,0.00,VWS V14.00,2013-03-09 05:05:00,
2013-03-09 00:10:00,35.8,24.1,30.15,NE,49,3.0,17.0,62,0.00,,SCT200,0.00,VWS V14.00,2013-03-09 05:10:00,
2013-03-09 00:15:00,35.6,23.9,30.15,North,5,4.0,17.0,62,0.00,,SCT200,0.00,VWS V14.00,2013-03-09 05:15:00,
2013-03-09 00:20:00,35.5,24.2,30.15,WSW,239,7.0,17.0,63,0.00,,SCT200,0.00,VWS V14.00,2013-03-09 05:20:00,
2013-03-09 00:25:00,35.3,24.0,30.15,North,355,4.0,17.0,63,0.00,,SCT200,0.00,VWS V14.00,2013-03-09 05:25:00,
2013-03-09 00:30:00,35.2,24.3,30.15,ENE,71,2.0,10.0,64,0.00,,SCT200,0.00,VWS V14.00,2013-03-09 05:30:00,
2013-03-09 00:35:00,35.1,24.2,30.15,North,360,3.0,10.0,64,0.00,,SCT200,0.00,VWS V14.00,2013-03-09 05:35:00,
2013-03-09 00:40:00,35.0,24.1,30.15,NE,51,1.0,10.0,64,0.00,,SCT200,0.00,VWS V14.00,2013-03-09 05:40:00,
2013-03-09 00:45:00,34.8,24.2,30.16,North,11,2.0,10.0,65,0.00,,SCT200,0.00,VWS V14.00,2013-03-09 05:45:00,
2013-03-09 00:50:00,34.7,24.1,30.16,NW,309,0.0,10.0,65,0.00,,SCT200,0.00,VWS V14.00,2013-03-09 05:50:00,
2013-03-09 00:55:00,34.6,24.1,30.15,North,5,0.0,10.0,65,0.00,,SCT200,0.00,VWS V14.00,2013-03-09 05:55:00,
2013-03-09 01:00:00,34.5,24.3,30.16,ESE,111,3.0,9.0,66,0.00,,SCT200,0.00,VWS V14.00,2013-03-09 06:00:00,
2013-03-09 01:05:00,34.3,24.1,30.16,WSW,256,1.0,9.0,66,0.00,,SCT200,0.00,VWS V14.00,2013-03-09 06:05:00,
2013-03-09 01:10:00,34.2,24.4,30.16,East,83,5.0,10.0,67,0.00,,SCT200,0.00,VWS V14.00,2013-03-09 06:10:00,
2013-03-09 01:15:00,34.1,24.3,30.16,NNW,333,5.0,10.0,67,0.00,,SCT200,0.00,VWS V14.00,2013-03-09 06:15:00,
2013-03-09 01:20:00,34.0,24.2,30.16,East,82,5.0,10.0,67,0.00,,SCT200,0.00,VWS V14.00,2013-03-09 06:20:00,
2013-03-09 01:25:00,33.9,24.5,30.16,North,355,2.0,10.0,68,0.00,,SCT200,0.00,VWS V14.00,2013-03-09 06:25:00,
2013-03-09 01:30:00,33.8,24.4,30.16,ENE,74,0.0,4.0,68,0.00,,SCT200,0.00,VWS V14.00,2013-03-09 06:30:00,
2013-03-09 01:35:00,33.7,24.3,30.16,NNE,19,2.0,10.0,68,0.00,,SCT200,0.00,VWS V14.00,2013-03-09 06:35:00,
2013-03-09 01:40:00,33.7,24.3,30.15,NE,56,9.0,10.0,68,0.00,,SCT200,0.00,VWS V14.00,2013-03-09 06:40:00,
2013-03-09 01:45:00,33.5,24.1,30.16,NNE,15,4.0,11.0,68,0.00,,SCT200,0.00,VWS V14.00,2013-03-09 06:45:00,
2013-03-09 01:50:00,33.4,24.3,30.16,NNE,30,3.0,11.0,69,0.00,,SCT200,0.00,VWS V14.00,2013-03-09 06:50:00,
2013-03-09 01:55:00,33.4,24.3,30.15,NNE,14,1.0,11.0,69,0.00,,SCT200,0.00,VWS V14.00,2013-03-09 06:55:00,
2013-03-09 02:00:00,33.2,24.1,30.16,NNE,19,2.0,8.0,69,0.00,,BKN200,0.00,VWS V14.00,2013-03-09 07:00:00,
2013-03-09 02:05:00,33.1,24.4,30.15,East,83,3.0,8.0,70,0.00,,BKN200,0.00,VWS V14.00,2013-03-09 07:05:00,
2013-03-09 02:10:00,33.0,24.3,30.16,ESE,123,4.0,8.0,70,0.00,,BKN200,0.00,VWS V14.00,2013-03-09 07:10:00,
2013-03-09 02:15:00,33.0,24.3,30.16,East,95,3.0,9.0,70,0.00,,BKN200,0.00,VWS V14.00,2013-03-09 07:15:00,
2013-03-09 02:20:00,33.0,24.3,30.15,NW,313,2.0,11.0,70,0.00,,BKN200,0.00,VWS V14.00,2013-03-09 07:20:00,
2013-03-09 02:25:00,32.9,24.2,30.15,ENE,59,5.0,11.0,70,0.00,,BKN200,0.00,VWS V14.00,2013-03-09 07:25:00,
2013-03-09 02:30:00,32.9,24.5,30.15,NNW,344,4.0,13.0,71,0.00,,BKN200,0.00,VWS V14.00,2013-03-09 07:30:00,
2013-03-09 02:35:00,32.9,24.5,30.15,SSW,212,1.0,13.0,71,0.00,,BKN200,0.00,VWS V14.00,2013-03-09 07:35:00,
2013-03-09 02:40:00,32.8,24.5,30.15,SSE,155,2.0,13.0,71,0.00,,BKN200,0.00,VWS V14.00,2013-03-09 07:40:00,
2013-03-09 02:45:00,32.7,24.4,30.15,East,90,6.0,13.0,71,0.00,,BKN200,0.00,VWS V14.00,2013-03-09 07:45:00,
2013-03-09 02:50:00,32.6,24.6,30.15,NNW,329,2.0,13.0,72,0.00,,BKN200,0.00,VWS V14.00,2013-03-09 07:50:00,
2013-03-09 02:55:00,32.5,24.5,30.15,NNW,331,1.0,13.0,72,0.00,,BKN200,0.00,VWS V14.00,2013-03-09 07:55:00,
2013-03-09 03:00:00,32.4,24.4,30.15,NNW,346,3.0,5.0,72,0.00,,BKN200,0.00,VWS V14.00,2013-03-09 08:00:00,
2013-03-09 03:05:00,32.4,24.4,30.15,NNE,20,0.0,12.0,72,0.00,,BKN200,0.00,VWS V14.00,2013-03-09 08:05:00,
2013-03-09 03:10:00,32.3,24.6,30.15,NE,42,4.0,12.0,73,0.00,,BKN200,0.00,VWS V14.00,2013-03-09 08:10:00,
2013-03-09 03:15:00,32.3,24.6,30.15,NNE,24,0.0,12.0,73,0.00,,BKN200,0.00,VWS V14.00,2013-03-09 08:15:00,
2013-03-09 03:20:00,32.2,24.5,30.15,NNW,345,1.0,12.0,73,0.00,,BKN200,0.00,VWS V14.00,2013-03-09 08:20:00,
2013-03-09 03:25:00,32.2,24.5,30.15,East,93,0.0,12.0,73,0.00,,BKN200,0.00,VWS V14.00,2013-03-09 08:25:00,
2013-03-09 03:30:00,32.2,24.5,30.15,NNW,346,6.0,7.0,73,0.00,,BKN200,0.00,VWS V14.00,2013-03-09 08:30:00,
2013-03-09 03:35:00,32.1,24.4,30.15,NE,46,4.0,9.0,73,0.00,,BKN200,0.00,VWS V14.00,2013-03-09 08:35:00,
2013-03-09 03:40:00,32.0,24.3,30.16,NE,50,0.0,9.0,73,0.00,,BKN200,0.00,VWS V14.00,2013-03-09 08:40:00,
2013-03-09 03:45:00,32.0,24.3,30.16,ENE,74,3.0,9.0,73,0.00,,BKN200,0.00,VWS V14.00,2013-03-09 08:45:00,
2013-03-09 03:50:00,31.9,24.6,30.16,ENE,65,5.0,10.0,74,0.00,,BKN200,0.00,VWS V14.00,2013-03-09 08:50:00,
2013-03-09 03:55:00,31.9,24.2,30.16,NNE,17,1.0,10.0,73,0.00,,BKN200,0.00,VWS V14.00,2013-03-09 08:55:00,
2013-03-09 04:00:00,31.7,24.4,30.16,SE,134,1.0,5.0,74,0.00,,BKN200,0.00,VWS V14.00,2013-03-09 09:00:00,
2013-03-09 04:05:00,31.7,24.4,30.16,North,5,2.0,8.0,74,0.00,,BKN200,0.00,VWS V14.00,2013-03-09 09:05:00,
2013-03-09 04:10:00,31.5,24.2,30.16,NW,311,0.0,8.0,74,0.00,,BKN200,0.00,VWS V14.00,2013-03-09 09:10:00,
2013-03-09 04:15:00,31.4,24.1,30.16,East,94,1.0,8.0,74,0.00,,BKN200,0.00,VWS V14.00,2013-03-09 09:15:00,
2013-03-09 04:20:00,31.4,24.4,30.16,North,355,2.0,8.0,75,0.00,,BKN200,0.00,VWS V14.00,2013-03-09 09:20:00,
2013-03-09 04:25:00,31.2,24.2,30.16,WNW,282,0.0,8.0,75,0.00,,BKN200,0.00,VWS V14.00,2013-03-09 09:25:00,
2013-03-09 04:30:00,31.2,24.2,30.16,East,93,2.0,6.0,75,0.00,,BKN200,0.00,VWS V14.00,2013-03-09 09:30:00,
2013-03-09 04:35:00,31.2,24.2,30.16,East,89,1.0,11.0,75,0.00,,BKN200,0.00,VWS V14.00,2013-03-09 09:35:00,
2013-03-09 04:40:00,31.2,24.2,30.16,ENE,57,5.0,11.0,75,0.00,,BKN200,0.00,VWS V14.00,2013-03-09 09:40:00,
2013-03-09 04:45:00,31.1,24.1,30.17,East,99,0.0,11.0,75,0.00,,BKN200,0.00,VWS V14.00,2013-03-09 09:45:00,
2013-03-09 04:50:00,31.0,24.0,30.17,NNE,24,2.0,11.0,75,0.00,,BKN200,0.00,VWS V14.00,2013-03-09 09:50:00,
2013-03-09 04:55:00,31.0,24.3,30.17,NNE,33,1.0,11.0,76,0.00,,BKN200,0.00,VWS V14.00,2013-03-09 09:55:00,
2013-03-09 05:00:00,30.9,24.2,30.17,ESE,107,0.0,6.0,76,0.00,,BKN200,0.00,VWS V14.00,2013-03-09 10:00:00,
2013-03-09 05:05:00,30.8,24.1,30.17,North,355,2.0,6.0,76,0.00,,BKN200,0.00,VWS V14.00,2013-03-09 10:05:00,
2013-03-09 05:10:00,30.7,24.0,30.17,NE,40,3.0,6.0,76,0.00,,BKN200,0.00,VWS V14.00,2013-03-09 10:10:00,
2013-03-09 05:15:00,30.7,24.0,30.17,SSE,156,3.0,8.0,76,0.00,,BKN200,0.00,VWS V14.00,2013-03-09 10:15:00,
2013-03-09 05:20:00,30.7,24.0,30.18,East,96,5.0,8.0,76,0.00,,BKN200,0.00,VWS V14.00,2013-03-09 10:20:00,
2013-03-09 05:25:00,30.7,24.0,30.18,North,9,4.0,8.0,76,0.00,,BKN200,0.00,VWS V14.00,2013-03-09 10:25:00,
2013-03-09 05:30:00,30.8,24.1,30.18,WNW,296,4.0,6.0,76,0.00,,BKN200,0.00,VWS V14.00,2013-03-09 10:30:00,
2013-03-09 05:35:00,30.7,24.4,30.18,NE,34,4.0,7.0,77,0.00,,BKN200,0.00,VWS V14.00,2013-03-09 10:35:00,
2013-03-09 05:40:00,30.7,24.4,30.18,ENE,60,7.0,7.0,77,0.00,,BKN200,0.00,VWS V14.00,2013-03-09 10:40:00,
2013-03-09 05:45:00,30.7,24.4,30.18,NNW,329,1.0,7.0,77,0.00,,BKN200,0.00,VWS V14.00,2013-03-09 10:45:00,
2013-03-09 05:50:00,30.6,24.3,30.19,NNE,13,2.0,7.0,77,0.00,,BKN200,0.00,VWS V14.00,2013-03-09 10:50:00,
2013-03-09 05:55:00,30.7,24.4,30.19,NNW,348,3.0,7.0,77,0.00,,BKN200,0.00,VWS V14.00,2013-03-09 10:55:00,
2013-03-09 06:00:00,30.6,24.3,30.19,East,95,5.0,8.0,77,0.00,,OVC020,0.00,VWS V14.00,2013-03-09 11:00:00,
2013-03-09 06:05:00,30.6,24.3,30.19,East,82,5.0,8.0,77,0.00,,OVC020,0.00,VWS V14.00,2013-03-09 11:05:00,
2013-03-09 06:10:00,30.7,24.4,30.19,NNE,16,3.0,8.0,77,0.00,,OVC020,0.00,VWS V14.00,2013-03-09 11:10:00,
2013-03-09 06:15:00,30.6,24.3,30.19,NE,35,0.0,9.0,77,0.00,,OVC020,0.00,VWS V14.00,2013-03-09 11:15:00,
2013-03-09 06:20:00,30.6,24.6,30.20,East,80,5.0,9.0,78,0.00,,OVC020,0.00,VWS V14.00,2013-03-09 11:20:00,
2013-03-09 06:25:00,30.6,24.6,30.20,East,84,2.0,9.0,78,0.00,,OVC020,0.00,VWS V14.00,2013-03-09 11:25:00,
2013-03-09 06:30:00,30.8,24.8,30.20,NNE,13,2.0,9.0,78,0.00,,OVC020,0.00,VWS V14.00,2013-03-09 11:30:00,
2013-03-09 06:35:00,30.9,24.5,30.20,NNE,25,6.0,9.0,77,0.00,,OVC020,0.00,VWS V14.00,2013-03-09 11:35:00,
2013-03-09 06:40:00,31.3,24.9,30.21,ENE,76,5.0,10.0,77,0.00,,OVC020,0.00,VWS V14.00,2013-03-09 11:40:00,
2013-03-09 06:45:00,31.4,25.0,30.21,SSE,165,3.0,10.0,77,0.00,,OVC020,0.00,VWS V14.00,2013-03-09 11:45:00,
2013-03-09 06:50:00,31.8,25.1,30.21,ENE,71,2.0,10.0,76,0.00,,OVC020,0.00,VWS V14.00,2013-03-09 11:50:00,
2013-03-09 06:55:00,31.8,24.8,30.21,ENE,71,2.0,10.0,75,0.00,,OVC020,0.00,VWS V14.00,2013-03-09 11:55:00,
2013-03-09 07:00:00,31.9,25.2,30.21,NE,51,5.0,8.0,76,0.00,,OVC200,0.00,VWS V14.00,2013-03-09 12:00:00,
2013-03-09 07:05:00,32.3,25.0,30.21,North,351,5.0,14.0,74,0.00,,OVC200,0.00,VWS V14.00,2013-03-09 12:05:00,
2013-03-09 07:10:00,32.4,25.0,30.21,North,355,2.0,14.0,74,0.00,,OVC200,0.00,VWS V14.00,2013-03-09 12:10:00,
2013-03-09 07:15:00,32.6,25.2,30.22,NE,50,3.0,14.0,74,0.00,,OVC200,0.00,VWS V14.00,2013-03-09 12:15:00,
2013-03-09 07:20:00,32.7,25.0,30.22,East,100,3.0,14.0,73,0.00,,OVC200,0.00,VWS V14.00,2013-03-09 12:20:00,
2013-03-09 07:25:00,33.0,25.3,30.22,SSW,197,2.0,14.0,73,0.00,,OVC200,0.00,VWS V14.00,2013-03-09 12:25:00,
2013-03-09 07:30:00,33.1,25.1,30.22,East,95,5.0,9.0,72,0.00,,OVC200,0.00,VWS V14.00,2013-03-09 12:30:00,
2013-03-09 07:35:00,33.2,25.2,30.21,NE,51,5.0,15.0,72,0.00,,OVC200,0.00,VWS V14.00,2013-03-09 12:35:00,
2013-03-09 07:40:00,33.1,25.1,30.21,ENE,57,2.0,15.0,72,0.00,,OVC200,0.00,VWS V14.00,2013-03-09 12:40:00,
2013-03-09 07:45:00,33.7,25.3,30.21,ENE,61,3.0,15.0,71,0.00,,OVC200,0.00,VWS V14.00,2013-03-09 12:45:00,
2013-03-09 07:50:00,33.8,25.1,30.22,NE,49,3.0,15.0,70,0.00,,OVC200,0.00,VWS V14.00,2013-03-09 12:50:00,
2013-03-09 07:55:00,33.8,25.1,30.22,ENE,74,8.0,15.0,70,0.00,,OVC200,0.00,VWS V14.00,2013-03-09 12:55:00,
2013-03-09 08:00:00,34.0,24.9,30.22,ENE,63,9.0,10.0,69,0.00,,BKN250,0.00,VWS V14.00,2013-03-09 13:00:00,
2013-03-09 08:05:00,34.7,25.6,30.22,ENE,78,1.0,10.0,69,0.00,,BKN250,0.00,VWS V14.00,2013-03-09 13:05:00,
2013-03-09 08:10:00,35.0,25.5,30.22,NE,37,5.0,10.0,68,0.00,,BKN250,0.00,VWS V14.00,2013-03-09 13:10:00,
2013-03-09 08:15:00,34.9,25.4,30.22,NE,50,1.0,10.0,68,0.00,,BKN250,0.00,VWS V14.00,2013-03-09 13:15:00,
2013-03-09 08:20:00,35.3,25.5,30.22,West,265,3.0,10.0,67,0.00,,BKN250,0.00,VWS V14.00,2013-03-09 13:20:00,
2013-03-09 08:25:00,35.9,25.7,30.22,NE,37,3.0,10.0,66,0.00,,BKN250,0.00,VWS V14.00,2013-03-09 13:25:00,
2013-03-09 08:30:00,35.6,25.0,30.22,East,86,5.0,8.0,65,0.00,,BKN250,0.00,VWS V14.00,2013-03-09 13:30:00,
2013-03-09 08:35:00,35.8,25.2,30.22,West,275,3.0,8.0,65,0.00,,BKN250,0.00,VWS V14.00,2013-03-09 13:35:00,
2013-03-09 08:40:00,36.3,25.7,30.23,North,5,0.0,8.0,65,0.00,,BKN250,0.00,VWS V14.00,2013-03-09 13:40:00,
2013-03-09 08:45:00,36.4,25.4,30.22,NE,50,6.0,11.0,64,0.00,,BKN250,0.00,VWS V14.00,2013-03-09 13:45:00,
2013-03-09 08:50:00,36.6,25.6,30.23,NW,310,1.0,13.0,64,0.00,,BKN250,0.00,VWS V14.00,2013-03-09 13:50:00,
2013-03-09 08:55:00,36.5,25.1,30.22,East,81,5.0,13.0,63,0.00,,BKN250,0.00,VWS V14.00,2013-03-09 13:55:00,
2013-03-09 09:00:00,36.5,25.1,30.22,North,360,5.0,11.0,63,0.00,,BKN250,0.00,VWS V14.00,2013-03-09 14:00:00,
2013-03-09 09:05:00,36.7,24.9,30.22,NE,56,7.0,11.0,62,0.00,,BKN250,0.00,VWS V14.00,2013-03-09 14:05:00,
2013-03-09 09:10:00,37.3,25.1,30.22,ESE,103,4.0,13.0,61,0.00,,BKN250,0.00,VWS V14.00,2013-03-09 14:10:00,
2013-03-09 09:15:00,36.8,25.0,30.22,WNW,285,4.0,13.0,62,0.00,,BKN250,0.00,VWS V14.00,2013-03-09 14:15:00,
2013-03-09 09:20:00,36.8,24.6,30.23,NE,46,2.0,15.0,61,0.00,,BKN250,0.00,VWS V14.00,2013-03-09 14:20:00,
2013-03-09 09:25:00,37.1,24.5,30.22,NE,45,5.0,15.0,60,0.00,,BKN250,0.00,VWS V14.00,2013-03-09 14:25:00,
2013-03-09 09:30:00,37.5,24.9,30.23,North,355,6.0,7.0,60,0.00,,BKN250,0.00,VWS V14.00,2013-03-09 14:30:00,
2013-03-09 09:35:00,37.6,24.6,30.22,ENE,65,3.0,10.0,59,0.00,,BKN250,0.00,VWS V14.00,2013-03-09 14:35:00,
2013-03-09 09:40:00,37.7,25.1,30.22,NNW,348,2.0,10.0,60,0.00,,BKN250,0.00,VWS V14.00,2013-03-09 14:40:00,
2013-03-09 09:45:00,38.5,25.4,30.23,NE,34,2.0,10.0,59,0.00,,BKN250,0.00,VWS V14.00,2013-03-09 14:45:00,
2013-03-09 09:50:00,38.9,25.0,30.23,East,97,0.0,10.0,57,0.00,,BKN250,0.00,VWS V14.00,2013-03-09 14:50:00,
2013-03-09 09:55:00,38.5,24.6,30.23,North,355,3.0,10.0,57,0.00,,BKN250,0.00,VWS V14.00,2013-03-09 14:55:00,
2013-03-09 10:00:00,39.2,24.8,30.23,ENE,64,4.0,8.0,56,0.00,,BKN180,0.00,VWS V14.00,2013-03-09 15:00:00,
2013-03-09 10:05:00,38.6,24.3,30.23,North,5,4.0,9.0,56,0.00,,BKN180,0.00,VWS V14.00,2013-03-09 15:05:00,
2013-03-09 10:10:00,39.0,24.6,30.22,NE,44,7.0,9.0,56,0.00,,BKN180,0.00,VWS V14.00,2013-03-09 15:10:00,
2013-03-09 10:15:00,39.3,24.5,30.22,NE,45,0.0,11.0,55,0.00,,BKN180,0.00,VWS V14.00,2013-03-09 15:15:00,
2013-03-09 10:20:00,39.6,24.8,30.23,NNE,31,4.0,11.0,55,0.00,,BKN180,0.00,VWS V14.00,2013-03-09 15:20:00,
2013-03-09 10:25:00,39.5,24.2,30.22,ENE,63,7.0,11.0,54,0.00,,BKN180,0.00,VWS V14.00,2013-03-09 15:25:00,
2013-03-09 10:30:00,39.9,24.2,30.22,ESE,107,4.0,7.0,53,0.00,,BKN180,0.00,VWS V14.00,2013-03-09 15:30:00,
2013-03-09 10:35:00,39.7,24.0,30.22,NNE,28,3.0,10.0,53,0.00,,BKN180,0.00,VWS V14.00,2013-03-09 15:35:00,
2013-03-09 10:40:00,40.2,24.0,30.22,WNW,294,1.0,10.0,52,0.00,,BKN180,0.00,VWS V14.00,2013-03-09 15:40:00,
2013-03-09 10:45:00,40.0,24.3,30.22,ENE,60,0.0,10.0,53,0.00,,BKN180,0.00,VWS V14.00,2013-03-09 15:45:00,
2013-03-09 10:50:00,40.4,24.2,30.22,ENE,67,0.0,10.0,52,0.00,,BKN180,0.00,VWS V14.00,2013-03-09 15:50:00,
2013-03-09 10:55:00,41.0,24.7,30.22,East,84,1.0,10.0,52,0.00,,BKN180,0.00,VWS V14.00,2013-03-09 15:55:00,
2013-03-09 11:00:00,41.3,25.0,30.22,SE,146,2.0,11.0,52,0.00,,SCT180,0.00,VWS V14.00,2013-03-09 16:00:00,
2013-03-09 11:05:00,42.3,25.5,30.22,WSW,250,6.0,11.0,51,0.00,,SCT180,0.00,VWS V14.00,2013-03-09 16:05:00,
2013-03-09 11:10:00,42.1,24.8,30.23,South,182,2.0,11.0,50,0.00,,SCT180,0.00,VWS V14.00,2013-03-09 16:10:00,
2013-03-09 11:15:00,41.9,25.1,30.22,ENE,66,5.0,11.0,51,0.00,,SCT180,0.00,VWS V14.00,2013-03-09 16:15:00,
2013-03-09 11:20:00,41.7,24.0,30.22,East,79,6.0,12.0,49,0.00,,SCT180,0.00,VWS V14.00,2013-03-09 16:20:00,
2013-03-09 11:25:00,42.2,24.4,30.23,SSW,205,4.0,12.0,49,0.00,,SCT180,0.00,VWS V14.00,2013-03-09 16:25:00,
2013-03-09 11:30:00,42.4,24.1,30.23,ENE,60,4.0,11.0,48,0.00,,SCT180,0.00,VWS V14.00,2013-03-09 16:30:00,
2013-03-09 11:35:00,42.5,24.2,30.23,North,360,1.0,11.0,48,0.00,,SCT180,0.00,VWS V14.00,2013-03-09 16:35:00,
2013-03-09 11:40:00,42.9,24.1,30.23,NNW,348,0.0,11.0,47,0.00,,SCT180,0.00,VWS V14.00,2013-03-09 16:40:00,
2013-03-09 11:45:00,43.4,25.0,30.23,SSW,205,2.0,11.0,48,0.00,,SCT180,0.00,VWS V14.00,2013-03-09 16:45:00,
2013-03-09 11:50:00,43.2,24.9,30.23,NNW,327,2.0,11.0,48,0.00,,SCT180,0.00,VWS V14.00,2013-03-09 16:50:00,
2013-03-09 11:55:00,43.2,24.9,30.23,WNW,290,3.0,11.0,48,0.00,,SCT180,0.00,VWS V14.00,2013-03-09 16:55:00,
2013-03-09 12:00:00,43.8,25.4,30.23,North,9,0.0,9.0,48,0.00,,SCT180,0.00,VWS V14.00,2013-03-09 17:00:00,
2013-03-09 12:05:00,43.7,25.3,30.22,WSW,248,8.0,9.0,48,0.00,,SCT180,0.00,VWS V14.00,2013-03-09 17:05:00,
2013-03-09 12:10:00,43.7,24.3,30.22,SSW,211,3.0,9.0,46,0.00,,SCT180,0.00,VWS V14.00,2013-03-09 17:10:00,
2013-03-09 12:15:00,43.7,24.3,30.22,NE,44,4.0,10.0,46,0.00,,SCT180,0.00,VWS V14.00,2013-03-09 17:15:00,
2013-03-09 12:20:00,44.0,25.1,30.22,NNW,347,0.0,10.0,47,0.00,,SCT180,0.00,VWS V14.00,2013-03-09 17:20:00,
2013-03-09 12:25:00,43.9,25.0,30.22,WNW,293,1.0,10.0,47,0.00,,SCT180,0.00,VWS V14.00,2013-03-09 17:25:00,
2013-03-09 12:30:00,44.3,24.8,30.21,ENE,63,2.0,4.0,46,0.00,,SCT180,0.00,VWS V14.00,2013-03-09 17:30:00,
2013-03-09 12:35:00,43.7,25.3,30.21,SW,219,4.0,4.0,48,0.00,,SCT180,0.00,VWS V14.00,2013-03-09 17:35:00,
2013-03-09 12:40:00,44.1,25.7,30.21,North,355,1.0,6.0,48,0.00,,SCT180,0.00,VWS V14.00,2013-03-09 17:40:00,
2013-03-09 12:45:00,44.2,24.8,30.21,SSW,213,4.0,8.0,46,0.00,,SCT180,0.00,VWS V14.00,2013-03-09 17:45:00,
2013-03-09 12:50:00,44.4,25.5,30.21,West,260,2.0,8.0,47,0.00,,SCT180,0.00,VWS V14.00,2013-03-09 17:50:00,
2013-03-09 12:55:00,45.0,24.4,30.22,WSW,256,3.0,8.0,44,0.00,,SCT180,0.00,VWS V14.00,2013-03-09 17:55:00,
2013-03-09 13:00:00,45.3,23.6,30.22,West,281,8.0,12.0,42,0.00,,SCT180,0.00,VWS V14.00,2013-03-09 18:00:00,
2013-03-09 13:05:00,45.4,23.7,30.22,NNW,348,3.0,12.0,42,0.00,,SCT180,0.00,VWS V14.00,2013-03-09 18:05:00,
2013-03-09 13:10:00,45.8,23.5,30.22,NNW,344,3.0,12.0,41,0.00,,SCT180,0.00,VWS V14.00,2013-03-09 18:10:00,
2013-03-09 13:15:00,45.7,23.9,30.22,NNE,25,1.0,12.0,42,0.00,,SCT180,0.00,VWS V14.00,2013-03-09 18:15:00,
2013-03-09 13:20:00,45.9,25.2,30.22,NW,322,5.0,12.0,44,0.00,,SCT180,0.00,VWS V14.00,2013-03-09 18:20:00,
2013-03-09 13:25:00,45.6,25.0,30.21,WNW,284,7.0,12.0,44,0.00,,SCT180,0.00,VWS V14.00,2013-03-09 18:25:00,
2013-03-09 13:30:00,45.5,24.9,30.21,NE,39,0.0,5.0,44,0.00,,SCT180,0.00,VWS V14.00,2013-03-09 18:30:00,
2013-03-09 13:35:00,45.9,24.7,30.21,WSW,253,4.0,6.0,43,0.00,,SCT180,0.00,VWS V14.00,2013-03-09 18:35:00,
2013-03-09 13:40:00,45.6,24.4,30.21,NNE,14,3.0,7.0,43,0.00,,SCT180,0.00,VWS V14.00,2013-03-09 18:40:00,
2013-03-09 13:45:00,45.9,24.7,30.21,SW,236,7.0,7.0,43,0.00,,SCT180,0.00,VWS V14.00,2013-03-09 18:45:00,
2013-03-09 13:50:00,46.1,23.7,30.21,NW,324,3.0,7.0,41,0.00,,SCT180,0.00,VWS V14.00,2013-03-09 18:50:00,
2013-03-09 13:55:00,46.2,23.8,30.21,North,355,6.0,7.0,41,0.00,,SCT180,0.00,VWS V14.00,2013-03-09 18:55:00,
2013-03-09 14:00:00,46.0,23.6,30.21,WNW,300,2.0,6.0,41,0.00,,FEW180,0.00,VWS V14.00,2013-03-09 19:00:00,
2013-03-09 14:05:00,46.7,23.7,30.21,NW,323,3.0,6.0,40,0.00,,FEW180,0.00,VWS V14.00,2013-03-09 19:05:00,
2013-03-09 14:10:00,46.7,24.3,30.21,NW,308,4.0,8.0,41,0.00,,FEW180,0.00,VWS V14.00,2013-03-09 19:10:00,
2013-03-09 14:15:00,46.7,24.3,30.21,West,268,0.0,8.0,41,0.00,,FEW180,0.00,VWS V14.00,2013-03-09 19:15:00,
2013-03-09 14:20:00,47.3,23.6,30.21,NNE,12,3.0,8.0,39,0.00,,FEW180,0.00,VWS V14.00,2013-03-09 19:20:00,
2013-03-09 14:25:00,47.3,23.6,30.21,NNW,329,1.0,8.0,39,0.00,,FEW180,0.00,VWS V14.00,2013-03-09 19:25:00,
2013-03-09 14:30:00,47.7,22.7,30.21,North,5,3.0,4.0,37,0.00,,FEW180,0.00,VWS V14.00,2013-03-09 19:30:00,
2013-03-09 14:35:00,47.6,22.6,30.21,NE,38,0.0,7.0,37,0.00,,FEW180,0.00,VWS V14.00,2013-03-09 19:35:00,
2013-03-09 14:40:00,47.8,22.2,30.20,NNW,348,0.0,7.0,36,0.00,,FEW180,0.00,VWS V14.00,2013-03-09 19:40:00,
2013-03-09 14:45:00,47.4,21.8,30.20,NE,38,3.0,7.0,36,0.00,,FEW180,0.00,VWS V14.00,2013-03-09 19:45:00,
2013-03-09 14:50:00,47.2,22.3,30.21,WNW,286,4.0,7.0,37,0.00,,FEW180,0.00,VWS V14.00,2013-03-09 19:50:00,
2013-03-09 14:55:00,47.8,22.8,30.21,NE,34,1.0,7.0,37,0.00,,FEW180,0.00,VWS V14.00,2013-03-09 19:55:00,
2013-03-09 15:00:00,47.5,21.9,30.21,SSW,205,1.0,4.0,36,0.00,,FEW180,0.00,VWS V14.00,2013-03-09 20:00:00,
2013-03-09 15:05:00,47.2,22.3,30.21,NNW,344,2.0,8.0,37,0.00,,FEW180,0.00,VWS V14.00,2013-03-09 20:05:00,
2013-03-09 15:10:00,47.8,20.8,30.21,North,5,4.0,9.0,34,0.00,,FEW180,0.00,VWS V14.00,2013-03-09 20:10:00,
2013-03-09 15:15:00,47.6,19.9,30.21,NE,53,0.0,10.0,33,0.00,,FEW180,0.00,VWS V14.00,2013-03-09 20:15:00,
2013-03-09 15:20:00,47.5,19.9,30.21,NNE,23,5.0,10.0,33,0.00,,FEW180,0.00,VWS V14.00,2013-03-09 20:20:00,
2013-03-09 15:25:00,47.7,20.0,30.21,NNE,15,2.0,10.0,33,0.00,,FEW180,0.00,VWS V14.00,2013-03-09 20:25:00,
2013-03-09 15:30:00,47.4,19.8,30.21,East,101,5.0,7.0,33,0.00,,FEW180,0.00,VWS V14.00,2013-03-09 20:30:00,
2013-03-09 15:35:00,47.7,19.3,30.21,North,360,1.0,7.0,32,0.00,,FEW180,0.00,VWS V14.00,2013-03-09 20:35:00,
2013-03-09 15:40:00,47.6,19.9,30.21,ENE,64,0.0,7.0,33,0.00,,FEW180,0.00,VWS V14.00,2013-03-09 20:40:00,
2013-03-09 15:45:00,47.7,19.3,30.22,ENE,72,7.0,10.0,32,0.00,,FEW180,0.00,VWS V14.00,2013-03-09 20:45:00,
2013-03-09 15:50:00,47.7,20.0,30.22,North,360,2.0,10.0,33,0.00,,FEW180,0.00,VWS V14.00,2013-03-09 20:50:00,
2013-03-09 15:55:00,47.4,19.8,30.22,ENE,59,5.0,10.0,33,0.00,,FEW180,0.00,VWS V14.00,2013-03-09 20:55:00,
2013-03-09 16:00:00,47.6,19.9,30.22,ENE,71,1.0,10.0,33,0.00,,FEW180,0.00,VWS V14.00,2013-03-09 21:00:00,
2013-03-09 16:05:00,47.3,19.0,30.22,East,91,2.0,10.0,32,0.00,,FEW180,0.00,VWS V14.00,2013-03-09 21:05:00,
2013-03-09 16:10:00,45.9,23.0,30.22,ESE,115,5.0,10.0,40,0.00,,FEW180,0.00,VWS V14.00,2013-03-09 21:10:00,
2013-03-09 16:15:00,42.0,28.7,30.22,WSW,242,5.0,10.0,59,0.00,,FEW180,0.00,VWS V14.00,2013-03-09 21:15:00,
2013-03-09 16:20:00,40.8,29.6,30.23,SW,217,2.0,10.0,64,0.00,,FEW180,0.00,VWS V14.00,2013-03-09 21:20:00,
2013-03-09 16:25:00,40.3,29.5,30.23,SSE,166,2.0,10.0,65,0.00,,FEW180,0.00,VWS V14.00,2013-03-09 21:25:00,
2013-03-09 16:30:00,39.8,29.8,30.23,East,91,5.0,5.0,67,0.00,,FEW180,0.00,VWS V14.00,2013-03-09 21:30:00,
2013-03-09 16:35:00,39.6,29.9,30.23,SSW,211,2.0,5.0,68,0.00,,FEW180,0.00,VWS V14.00,2013-03-09 21:35:00,
2013-03-09 16:40:00,39.5,29.8,30.23,WSW,250,0.0,6.0,68,0.00,,FEW180,0.00,VWS V14.00,2013-03-09 21:40:00,
2013-03-09 16:45:00,39.5,30.2,30.24,South,179,0.0,6.0,69,0.00,,FEW180,0.00,VWS V14.00,2013-03-09 21:45:00,
2013-03-09 16:50:00,39.4,30.1,30.24,ESE,123,0.0,6.0,69,0.00,,FEW180,0.00,VWS V14.00,2013-03-09 21:50:00,
2013-03-09 16:55:00,39.4,30.1,30.24,SE,128,1.0,6.0,69,0.00,,FEW180,0.00,VWS V14.00,2013-03-09 21:55:00,
2013-03-09 17:00:00,39.2,29.9,30.24,SE,128,0.0,1.0,69,0.00,,FEW180,0.00,VWS V14.00,2013-03-09 22:00:00,
2013-03-09 17:05:00,39.2,29.9,30.25,East,99,1.0,2.0,69,0.00,,FEW180,0.00,VWS V14.00,2013-03-09 22:05:00,
2013-03-09 17:10:00,39.1,29.8,30.25,East,99,0.0,2.0,69,0.00,,FEW180,0.00,VWS V14.00,2013-03-09 22:10:00,
2013-03-09 17:15:00,38.9,30.0,30.25,East,99,0.0,2.0,70,0.00,,FEW180,0.00,VWS V14.00,2013-03-09 22:15:00,
2013-03-09 17:20:00,38.6,30.0,30.25,East,99,0.0,2.0,71,0.00,,FEW180,0.00,VWS V14.00,2013-03-09 22:20:00,
2013-03-09 17:25:00,38.4,29.8,30.26,East,99,0.0,2.0,71,0.00,,FEW180,0.00,VWS V14.00,2013-03-09 22:25:00,
2013-03-09 17:30:00,38.2,30.0,30.26,East,99,0.0,0.0,72,0.00,,FEW180,0.00,VWS V14.00,2013-03-09 22:30:00,
2013-03-09 17:35:00,37.6,29.4,30.26,East,99,0.0,0.0,72,0.00,,FEW180,0.00,VWS V14.00,2013-03-09 22:35:00,
2013-03-09 17:40:00,37.4,29.5,30.26,East,99,0.0,1.0,73,0.00,,FEW180,0.00,VWS V14.00,2013-03-09 22:40:00,
2013-03-09 17:45:00,36.9,29.4,30.26,East,99,0.0,1.0,74,0.00,,FEW180,0.00,VWS V14.00,2013-03-09 22:45:00,
2013-03-09 17:50:00,36.4,29.2,30.26,East,99,0.0,1.0,75,0.00,,FEW180,0.00,VWS V14.00,2013-03-09 22:50:00,
2013-03-09 17:55:00,35.8,29.0,30.27,East,99,0.0,1.0,76,0.00,,FEW180,0.00,VWS V14.00,2013-03-09 22:55:00,
2013-03-09 18:00:00,35.5,29.0,30.27,East,99,0.0,0.0,77,0.00,,FEW180,0.00,VWS V14.00,2013-03-09 23:00:00,
2013-03-09 18:05:00,34.9,28.8,30.27,East,99,0.0,0.0,78,0.00,,FEW180,0.00,VWS V14.00,2013-03-09 23:05:00,
2013-03-09 18:10:00,34.4,28.9,30.27,East,99,0.0,0.0,80,0.00,,FEW180,0.00,VWS V14.00,2013-03-09 23:10:00,
2013-03-09 18:15:00,33.9,28.7,30.28,East,99,0.0,2.0,81,0.00,,FEW180,0.00,VWS V14.00,2013-03-09 23:15:00,
2013-03-09 18:20:00,33.4,28.5,30.28,East,99,0.0,2.0,82,0.00,,FEW180,0.00,VWS V14.00,2013-03-09 23:20:00,
2013-03-09 18:25:00,33.1,28.2,30.28,East,99,0.0,2.0,82,0.00,,FEW180,0.00,VWS V14.00,2013-03-09 23:25:00,
2013-03-09 18:30:00,32.6,28.0,30.28,East,99,0.0,0.0,83,0.00,,FEW180,0.00,VWS V14.00,2013-03-09 23:30:00,
2013-03-09 18:35:00,32.4,27.8,30.28,East,99,0.0,0.0,83,0.00,,FEW180,0.00,VWS V14.00,2013-03-09 23:35:00,
2013-03-09 18:40:00,32.2,27.9,30.28,East,99,0.0,0.0,84,0.00,,FEW180,0.00,VWS V14.00,2013-03-09 23:40:00,
2013-03-09 18:45:00,32.0,28.0,30.29,East,99,0.0,0.0,85,0.00,,FEW180,0.00,VWS V14.00,2013-03-09 23:45:00,
2013-03-09 18:50:00,31.7,27.7,30.29,East,99,0.0,0.0,85,0.00,,FEW180,0.00,VWS V14.00,2013-03-09 23:50:00,
2013-03-09 18:55:00,31.2,27.2,30.29,East,99,0.0,0.0,85,0.00,,FEW180,0.00,VWS V14.00,2013-03-09 23:55:00,
2013-03-09 19:00:00,30.9,27.2,30.29,East,99,0.0,0.0,86,0.00,,CLR,0.00,VWS V14.00,2013-03-10 00:00:00,
2013-03-09 19:05:00,30.7,27.3,30.29,East,99,0.0,0.0,87,0.00,,CLR,0.00,VWS V14.00,2013-03-10 00:05:00,
2013-03-09 19:10:00,30.3,26.9,30.29,East,99,0.0,0.0,87,0.00,,CLR,0.00,VWS V14.00,2013-03-10 00:10:00,
2013-03-09 19:15:00,30.1,27.0,30.29,East,99,0.0,0.0,88,0.00,,CLR,0.00,VWS V14.00,2013-03-10 00:15:00,
2013-03-09 19:20:00,30.0,26.9,30.29,East,99,0.0,0.0,88,0.00,,CLR,0.00,VWS V14.00,2013-03-10 00:20:00,
2013-03-09 19:25:00,29.7,26.6,30.29,East,99,0.0,0.0,88,0.00,,CLR,0.00,VWS V14.00,2013-03-10 00:25:00,
2013-03-09 19:30:00,29.5,26.4,30.30,East,99,0.0,0.0,88,0.00,,CLR,0.00,VWS V14.00,2013-03-10 00:30:00,
2013-03-09 19:35:00,29.4,26.3,30.30,East,99,0.0,0.0,88,0.00,,CLR,0.00,VWS V14.00,2013-03-10 00:35:00,
2013-03-09 19:40:00,29.3,26.5,30.30,East,99,0.0,0.0,89,0.00,,CLR,0.00,VWS V14.00,2013-03-10 00:40:00,
2013-03-09 19:45:00,29.3,26.5,30.30,East,99,0.0,0.0,89,0.00,,CLR,0.00,VWS V14.00,2013-03-10 00:45:00,
2013-03-09 19:50:00,29.4,26.6,30.30,East,99,0.0,1.0,89,0.00,,CLR,0.00,VWS V14.00,2013-03-10 00:50:00,
2013-03-09 19:55:00,29.5,26.7,30.30,East,99,0.0,2.0,89,0.00,,CLR,0.00,VWS V14.00,2013-03-10 00:55:00,
2013-03-09 20:00:00,29.6,26.8,30.30,East,99,0.0,0.0,89,0.00,,CLR,0.00,VWS V14.00,2013-03-10 01:00:00,
2013-03-09 20:05:00,29.5,26.7,30.30,East,99,0.0,0.0,89,0.00,,CLR,0.00,VWS V14.00,2013-03-10 01:05:00,
2013-03-09 20:10:00,29.4,26.3,30.30,East,99,0.0,0.0,88,0.00,,CLR,0.00,VWS V14.00,2013-03-10 01:10:00,
2013-03-09 20:15:00,29.0,25.9,30.30,East,99,0.0,1.0,88,0.00,,CLR,0.00,VWS V14.00,2013-03-10 01:15:00,
2013-03-09 20:20:00,28.8,26.0,30.30,East,99,2.0,3.0,89,0.00,,CLR,0.00,VWS V14.00,2013-03-10 01:20:00,
2013-03-09 20:25:00,29.0,26.4,30.31,East,99,0.0,3.0,90,0.00,,CLR,0.00,VWS V14.00,2013-03-10 01:25:00,
2013-03-09 20:30:00,29.1,26.3,30.31,East,99,0.0,0.0,89,0.00,,CLR,0.00,VWS V14.00,2013-03-10 01:30:00,
2013-03-09 20:35:00,28.7,25.9,30.31,East,99,0.0,0.0,89,0.00,,CLR,0.00,VWS V14.00,2013-03-10 01:35:00,
2013-03-09 20:40:00,28.7,25.9,30.31,South,175,0.0,2.0,89,0.00,,CLR,0.00,VWS V14.00,2013-03-10 01:40:00,
2013-03-09 20:45:00,28.5,25.7,30.31,South,175,0.0,2.0,89,0.00,,CLR,0.00,VWS V14.00,2013-03-10 01:45:00,
2013-03-09 20:50:00,28.3,25.5,30.31,South,175,0.0,2.0,89,0.00,,CLR,0.00,VWS V14.00,2013-03-10 01:50:00,
2013-03-09 20:55:00,28.2,25.6,30.31,South,175,0.0,2.0,90,0.00,,CLR,0.00,VWS V14.00,2013-03-10 01:55:00,
2013-03-09 21:00:00,28.1,25.5,30.31,South,175,0.0,0.0,90,0.00,,CLR,0.00,VWS V14.00,2013-03-10 02:00:00,
2013-03-09 21:05:00,28.1,25.5,30.31,South,175,0.0,0.0,90,0.00,,CLR,0.00,VWS V14.00,2013-03-10 02:05:00,
2013-03-09 21:10:00,28.0,25.5,30.31,South,175,0.0,0.0,90,0.00,,CLR,0.00,VWS V14.00,2013-03-10 02:10:00,
2013-03-09 21:15:00,28.1,25.5,30.32,South,175,0.0,0.0,90,0.00,,CLR,0.00,VWS V14.00,2013-03-10 02:15:00,
2013-03-09 21:20:00,28.1,25.5,30.31,South,175,0.0,0.0,90,0.00,,CLR,0.00,VWS V14.00,2013-03-10 02:20:00,
2013-03-09 21:25:00,27.8,25.2,30.32,South,175,0.0,0.0,90,0.00,,CLR,0.00,VWS V14.00,2013-03-10 02:25:00,
2013-03-09 21:30:00,27.6,25.1,30.32,South,175,0.0,1.0,90,0.00,,CLR,0.00,VWS V14.00,2013-03-10 02:30:00,
2013-03-09 21:35:00,27.5,25.0,30.32,South,175,0.0,1.0,90,0.00,,CLR,0.00,VWS V14.00,2013-03-10 02:35:00,
2013-03-09 21:40:00,27.5,25.0,30.32,South,175,0.0,1.0,90,0.00,,CLR,0.00,VWS V14.00,2013-03-10 02:40:00,
2013-03-09 21:45:00,27.3,24.8,30.32,South,175,0.0,1.0,90,0.00,,CLR,0.00,VWS V14.00,2013-03-10 02:45:00,
2013-03-09 21:50:00,27.1,24.6,30.32,South,175,0.0,1.0,90,0.00,,CLR,0.00,VWS V14.00,2013-03-10 02:50:00,
2013-03-09 21:55:00,27.0,24.7,30.33,South,175,0.0,1.0,91,0.00,,CLR,0.00,VWS V14.00,2013-03-10 02:55:00,
2013-03-09 22:00:00,26.9,24.6,30.33,South,175,0.0,0.0,91,0.00,,CLR,0.00,VWS V14.00,2013-03-10 03:00:00,
2013-03-09 22:05:00,26.7,24.4,30.33,South,175,0.0,0.0,91,0.00,,CLR,0.00,VWS V14.00,2013-03-10 03:05:00,
2013-03-09 22:10:00,26.7,24.4,30.33,South,175,0.0,0.0,91,0.00,,CLR,0.00,VWS V14.00,2013-03-10 03:10:00,
2013-03-09 22:15:00,26.6,24.3,30.33,South,175,0.0,0.0,91,0.00,,CLR,0.00,VWS V14.00,2013-03-10 03:15:00,
2013-03-09 22:20:00,26.5,24.2,30.33,South,175,0.0,0.0,91,0.00,,CLR,0.00,VWS V14.00,2013-03-10 03:20:00,
2013-03-09 22:25:00,26.5,24.5,30.33,South,175,0.0,0.0,92,0.00,,CLR,0.00,VWS V14.00,2013-03-10 03:25:00,
2013-03-09 22:30:00,26.3,24.0,30.33,South,175,0.0,0.0,91,0.00,,CLR,0.00,VWS V14.00,2013-03-10 03:30:00,
2013-03-09 22:35:00,26.2,24.2,30.33,South,175,0.0,0.0,92,0.00,,CLR,0.00,VWS V14.00,2013-03-10 03:35:00,
2013-03-09 22:40:00,26.3,24.3,30.33,South,175,0.0,0.0,92,0.00,,CLR,0.00,VWS V14.00,2013-03-10 03:40:00,
2013-03-09 22:45:00,26.3,24.3,30.33,South,175,0.0,0.0,92,0.00,,CLR,0.00,VWS V14.00,2013-03-10 03:45:00,
2013-03-09 22:50:00,26.3,24.3,30.32,South,175,0.0,0.0,92,0.00,,CLR,0.00,VWS V14.00,2013-03-10 03:50:00,
2013-03-09 22:55:00,26.1,24.1,30.32,South,175,0.0,0.0,92,0.00,,CLR,0.00,VWS V14.00,2013-03-10 03:55:00,
2013-03-09 23:00:00,25.8,23.8,30.32,South,175,0.0,0.0,92,0.00,,CLR,0.00,VWS V14.00,2013-03-10 04:00:00,
2013-03-09 23:05:00,25.9,23.9,30.33,South,184,3.0,3.0,92,0.00,,CLR,0.00,VWS V14.00,2013-03-10 04:05:00,
2013-03-09 23:10:00,26.3,24.6,30.33,WSW,252,1.0,3.0,93,0.00,,CLR,0.00,VWS V14.00,2013-03-10 04:10:00,
2013-03-09 23:15:00,26.6,24.9,30.33,WSW,252,0.0,3.0,93,0.00,,CLR,0.00,VWS V14.00,2013-03-10 04:15:00,
2013-03-09 23:20:00,26.6,24.6,30.34,WSW,252,1.0,3.0,92,0.00,,CLR,0.00,VWS V14.00,2013-03-10 04:20:00,
2013-03-09 23:25:00,26.6,24.6,30.34,WSW,252,0.0,3.0,92,0.00,,CLR,0.00,VWS V14.00,2013-03-10 04:25:00,
2013-03-09 23:30:00,26.3,24.3,30.34,WSW,252,0.0,0.0,92,0.00,,CLR,0.00,VWS V14.00,2013-03-10 04:30:00,
2013-03-09 23:35:00,26.3,24.3,30.34,WSW,252,0.0,0.0,92,0.00,,CLR,0.00,VWS V14.00,2013-03-10 04:35:00,
2013-03-09 23:40:00,26.1,24.1,30.34,WSW,252,0.0,0.0,92,0.00,,CLR,0.00,VWS V14.00,2013-03-10 04:40:00,
2013-03-09 23:45:00,25.8,23.8,30.34,WSW,252,0.0,0.0,92,0.00,,CLR,0.00,VWS V14.00,2013-03-10 04:45:00,
2013-03-09 23:50:00,25.7,23.7,30.34,WSW,252,0.0,2.0,92,0.00,,CLR,0.00,VWS V14.00,2013-03-10 04:50:00,
2013-03-09 23:55:00,25.8,23.8,30.34,WSW,252,0.0,2.0,92,0.00,,CLR,0.00,VWS V14.00,2013-03-10 04:55:00,